Location: Igri�s
(42.2144°N, 0.4320°W)
Time: 17:06:35
(UTC+00:00)

Terra - Pass Details

Date: 13 August 2020
Orbit: 701 x 703 km, 98.2° (Epoch: 18 September)

Event Time Altitude Azimuth Distance (km) Brightness Sun altitude
Exits shadow 22:19:10 58° 291° (WNW) 823 2.3 -28.3°
Drops below altitude 10° 22:23:23 10° 340° (NNW) 2,180 5.3 -28.7°
Sets 22:25:41 0° 344° (NNW) 3,102 6.3 -28.9°
